�������l�o���
Date,Time,MP-1(��Sv/h),MP-2(��Sv/h),MP-3(��Sv/h),MP-4(��Sv/h),MP-5(��Sv/h),MP-6(��Sv/h),MP-7(��Sv/h),MP-8(��Sv/h),����,����(m/s),���J
2019/10/22,00:00,0.711,1.014,0.671,1.246,0.879,0.411,0.714,0.676,�k�k��,1.0,�L
2019/10/22,00:10,0.713,1.016,0.671,1.245,0.879,0.410,0.714,0.678,�k��,1.5,�L
2019/10/22,00:20,0.713,1.014,0.671,1.244,0.879,0.412,0.715,0.677,�k��,1.6,��
2019/10/22,00:30,0.714,1.014,0.671,1.244,0.879,0.410,0.714,0.679,�k��,1.7,��
2019/10/22,00:40,0.715,1.015,0.672,1.244,0.878,0.410,0.714,0.677,�k��,1.8,�L
2019/10/22,00:50,0.714,1.014,0.670,1.245,0.879,0.411,0.713,0.679,�k�k��,1.8,�L
2019/10/22,01:00,0.714,1.012,0.674,1.245,0.877,0.411,0.715,0.680,�k�k��,2.3,�L
2019/10/22,01:10,0.713,1.017,0.672,1.245,0.878,0.410,0.714,0.679,�k�k��,1.8,�L
2019/10/22,01:20,0.712,1.015,0.671,1.244,0.880,0.412,0.712,0.677,�k��,2.5,�L
2019/10/22,01:30,0.713,1.014,0.674,1.244,0.878,0.412,0.715,0.676,�k�k��,2.7,�L
2019/10/22,01:40,0.712,1.012,0.671,1.245,0.876,0.412,0.710,0.676,�k�k��,3.0,�L
2019/10/22,01:50,0.710,1.009,0.671,1.242,0.876,0.411,0.712,0.677,�k�k��,3.8,�L
2019/10/22,02:00,0.710,1.009,0.671,1.243,0.874,0.410,0.713,0.678,�k�k��,3.6,�L
2019/10/22,02:10,0.708,1.010,0.669,1.240,0.874,0.409,0.711,0.675,�k�k��,3.6,�L
2019/10/22,02:20,0.708,1.004,0.670,1.238,0.870,0.409,0.711,0.675,�k�k��,5.5,�L
2019/10/22,02:30,0.708,1.002,0.668,1.237,0.869,0.410,0.708,0.671,�k�k��,6.0,�L
2019/10/22,02:40,0.707,0.999,0.667,1.235,0.866,0.410,0.709,0.671,�k�k��,5.2,�L
2019/10/22,02:50,0.704,0.996,0.665,1.231,0.862,0.409,0.706,0.671,�k�k��,5.0,�L
2019/10/22,03:00,0.702,0.992,0.664,1.226,0.861,0.409,0.706,0.670,�k�k��,5.5,�L
2019/10/22,03:10,0.700,0.989,0.664,1.227,0.858,0.406,0.705,0.669,�k�k��,5.5,�L
2019/10/22,03:20,0.700,0.988,0.661,1.222,0.857,0.408,0.703,0.667,�k�k��,5.0,�L
2019/10/22,03:30,0.700,0.985,0.661,1.221,0.856,0.407,0.703,0.668,�k�k��,5.2,�L
2019/10/22,03:40,0.696,0.984,0.661,1.218,0.853,0.406,0.702,0.669,�k�k��,4.9,�L
2019/10/22,03:50,0.697,0.981,0.660,1.218,0.852,0.405,0.703,0.668,�k�k��,5.8,�L
2019/10/22,04:00,0.698,0.981,0.659,1.216,0.852,0.407,0.701,0.667,�k�k��,5.8,�L
2019/10/22,04:10,0.697,0.982,0.659,1.213,0.852,0.404,0.701,0.668,�k�k��,5.3,�L
2019/10/22,04:20,0.695,0.977,0.660,1.211,0.849,0.405,0.701,0.667,�k�k��,4.7,�L
2019/10/22,04:30,0.691,0.972,0.656,1.205,0.848,0.404,0.698,0.663,�k,2.4,�L
2019/10/22,04:40,0.689,0.967,0.655,1.198,0.844,0.404,0.698,0.663,�k�k��,2.2,�L
2019/10/22,04:50,0.689,0.965,0.653,1.196,0.842,0.403,0.697,0.662,�k,2.6,�L
2019/10/22,05:00,0.691,0.962,0.656,1.194,0.841,0.404,0.694,0.661,�k,3.1,�L
2019/10/22,05:10,0.687,0.961,0.654,1.192,0.839,0.404,0.694,0.661,�k�k��,2.8,�L
2019/10/22,05:20,0.687,0.958,0.653,1.189,0.836,0.403,0.695,0.659,�k,2.1,�L
2019/10/22,05:30,0.683,0.957,0.650,1.184,0.832,0.402,0.691,0.658,�k�k��,2.4,�L
2019/10/22,05:40,0.682,0.950,0.646,1.181,0.830,0.401,0.689,0.657,�k,5.2,�L
2019/10/22,05:50,0.682,0.953,0.649,1.179,0.828,0.400,0.691,0.659,�k,4.7,�L
2019/10/22,06:00,0.681,0.952,0.647,1.176,0.828,0.401,0.690,0.656,�k,3.3,�L
2019/10/22,06:10,0.681,0.947,0.646,1.176,0.825,0.400,0.688,0.656,-,CALM,�L
2019/10/22,06:20,0.680,0.945,0.642,1.170,0.822,0.400,0.688,0.655,�k,11.3,�L
2019/10/22,06:30,0.679,0.944,0.641,1.170,0.820,0.401,0.687,0.654,�k,4.7,�L
2019/10/22,06:40,0.681,0.944,0.639,1.166,0.822,0.400,0.686,0.653,�k,3.9,�L
2019/10/22,06:50,0.683,0.945,0.637,1.165,0.818,0.400,0.685,0.652,���k��,7.7,�L
2019/10/22,07:00,0.685,0.946,0.637,1.169,0.817,0.402,0.688,0.653,���k��,7.7,�L
2019/10/22,07:10,0.685,0.947,0.636,1.172,0.820,0.403,0.688,0.656,���k��,7.1,�L
2019/10/22,07:20,0.687,0.952,0.637,1.176,0.820,0.405,0.689,0.656,�k��,7.1,�L
2019/10/22,07:30,0.686,0.952,0.639,1.177,0.822,0.404,0.689,0.656,�k��,8.8,�L
2019/10/22,07:40,0.689,0.955,0.640,1.180,0.822,0.404,0.691,0.657,�k��,9.1,�L
2019/10/22,07:50,0.690,0.959,0.641,1.181,0.823,0.405,0.692,0.659,�k��,8.2,�L
2019/10/22,08:00,0.692,0.961,0.643,1.188,0.824,0.404,0.694,0.660,�k��,8.3,�L
2019/10/22,08:10,0.692,0.960,0.644,1.185,0.827,0.405,0.693,0.660,�k��,8.8,�L
2019/10/22,08:20,0.690,0.960,0.644,1.187,0.825,0.405,0.692,0.660,�k��,10.4,�L
2019/10/22,08:30,0.690,0.957,0.643,1.185,0.825,0.404,0.693,0.660,�k��,9.6,�L
2019/10/22,08:40,0.688,0.957,0.642,1.186,0.823,0.404,0.692,0.659,�k��,8.5,�L
2019/10/22,08:50,0.689,0.958,0.643,1.189,0.823,0.403,0.693,0.661,�k��,10.2,�L
2019/10/22,09:00,0.691,0.960,0.644,1.188,0.825,0.405,0.694,0.659,�k��,10.1,�L
2019/10/22,09:10,0.690,0.960,0.644,1.188,0.827,0.403,0.695,0.660,�k��,9.9,�L
2019/10/22,09:20,0.691,0.959,0.646,1.191,0.825,0.404,0.694,0.660,�k��,8.9,��
2019/10/22,09:30,0.691,0.960,0.645,1.195,0.827,0.404,0.694,0.661,�k�k��,8.8,�L
2019/10/22,09:40,0.692,0.962,0.646,1.195,0.828,0.405,0.694,0.662,�k�k��,8.3,�L
2019/10/22,09:50,0.693,0.965,0.645,1.197,0.829,0.403,0.695,0.663,�k�k��,8.6,�L
2019/10/22,10:00,0.692,0.966,0.646,1.198,0.826,0.404,0.696,0.660,�k,7.7,�L
2019/10/22,10:10,0.693,0.967,0.648,1.201,0.830,0.403,0.696,0.661,�k,7.1,�L
2019/10/22,10:20,0.693,0.968,0.646,1.196,0.829,0.404,0.696,0.663,�k�k��,6.6,�L
2019/10/22,10:30,0.692,0.969,0.648,1.199,0.830,0.404,0.696,0.664,�k�k��,6.9,�L
2019/10/22,10:40,0.692,0.968,0.649,1.199,0.831,0.404,0.696,0.665,�k�k��,7.8,�L
2019/10/22,10:50,0.691,0.965,0.648,1.202,0.830,0.403,0.697,0.664,�k�k��,7.1,�L
2019/10/22,11:00,0.691,0.966,0.646,1.198,0.828,0.406,0.696,0.665,�k,8.5,�L
2019/10/22,11:10,0.693,0.963,0.647,1.199,0.830,0.404,0.696,0.662,�k,9.4,�L
2019/10/22,11:20,0.690,0.962,0.648,1.197,0.830,0.405,0.696,0.662,�k,7.4,�L
2019/10/22,11:30,0.690,0.958,0.648,1.198,0.827,0.405,0.694,0.662,�k�k��,7.7,�L
2019/10/22,11:40,0.688,0.955,0.646,1.188,0.825,0.403,0.692,0.660,�k,7.5,�L
2019/10/22,11:50,0.689,0.951,0.644,1.184,0.822,0.404,0.693,0.658,�k,5.8,�L
2019/10/22,12:00,0.683,0.944,0.639,1.178,0.818,0.402,0.689,0.658,�k�k��,6.7,�L
2019/10/22,12:10,0.682,0.943,0.638,1.173,0.813,0.402,0.689,0.655,�k,8.5,�L
2019/10/22,12:20,0.684,0.946,0.633,1.173,0.814,0.405,0.690,0.655,�k,10.5,�L
2019/10/22,12:30,0.687,0.946,0.631,1.177,0.816,0.404,0.689,0.656,�k,12.2,�L
2019/10/22,12:40,0.687,0.950,0.630,1.181,0.816,0.405,0.689,0.657,�k,9.7,�L
2019/10/22,12:50,0.686,0.948,0.628,1.177,0.814,0.404,0.690,0.656,�k,11.1,�L
2019/10/22,13:00,0.687,0.951,0.629,1.178,0.815,0.405,0.688,0.659,�k,12.4,�L
2019/10/22,13:10,0.689,0.954,0.630,1.181,0.814,0.404,0.690,0.659,�k,10.2,�L
2019/10/22,13:20,0.688,0.952,0.631,1.182,0.818,0.403,0.692,0.659,�k,11.9,�L
2019/10/22,13:30,0.686,0.949,0.629,1.183,0.814,0.404,0.690,0.658,�k�k��,13.2,�L
2019/10/22,13:40,0.688,0.953,0.628,1.183,0.814,0.403,0.693,0.660,�k�k��,12.7,�L
2019/10/22,13:50,0.689,0.954,0.630,1.186,0.814,0.403,0.693,0.660,�k�k��,13.2,�L
2019/10/22,14:00,0.689,0.954,0.631,1.185,0.817,0.403,0.692,0.658,�k,13.4,�L
2019/10/22,14:10,0.687,0.952,0.632,1.187,0.815,0.401,0.692,0.658,�k,11.3,�L
2019/10/22,14:20,0.690,0.955,0.632,1.190,0.818,0.402,0.693,0.660,�k,11.3,�L
2019/10/22,14:30,0.689,0.956,0.633,1.190,0.817,0.403,0.691,0.660,�k�k��,10.4,�L
2019/10/22,14:40,0.687,0.952,0.631,1.186,0.815,0.402,0.692,0.659,�k,10.1,�L
2019/10/22,14:50,0.682,0.943,0.627,1.181,0.808,0.399,0.688,0.656,�k�k��,12.1,�L
2019/10/22,15:00,0.679,0.941,0.627,1.172,0.807,0.400,0.688,0.657,�k�k��,11.8,�L
2019/10/22,15:10,0.683,0.943,0.626,1.176,0.808,0.399,0.688,0.655,-,CALM,�L
2019/10/22,15:20,0.682,0.941,0.625,1.172,0.805,0.399,0.687,0.656,�k�k��,11.6,�L
2019/10/22,15:30,0.683,0.943,0.623,1.174,0.805,0.398,0.687,0.656,�k�k��,12.7,�L
2019/10/22,15:40,0.680,0.944,0.625,1.174,0.804,0.400,0.686,0.655,�k��,10.2,�L
2019/10/22,15:50,0.678,0.939,0.624,1.174,0.804,0.398,0.688,0.657,�k�k��,10.5,�L
2019/10/22,16:00,0.683,0.944,0.626,1.177,0.808,0.400,0.687,0.656,�k�k��,10.4,�L
2019/10/22,16:10,0.684,0.947,0.626,1.178,0.807,0.401,0.688,0.657,�k,11.3,�L
2019/10/22,16:20,0.684,0.947,0.627,1.179,0.807,0.398,0.690,0.656,-,CALM,�L
2019/10/22,16:30,0.685,0.945,0.626,1.184,0.809,0.400,0.689,0.659,�k,9.1,�L
2019/10/22,16:40,0.684,0.948,0.627,1.179,0.811,0.400,0.688,0.656,�k,10.8,�L
2019/10/22,16:50,0.685,0.945,0.627,1.180,0.809,0.399,0.688,0.658,-,CALM,�L
2019/10/22,17:00,0.684,0.945,0.627,1.180,0.808,0.399,0.688,0.658,�k,11.1,�L
2019/10/22,17:10,0.683,0.947,0.627,1.179,0.806,0.399,0.689,0.655,�k,10.8,�L
2019/10/22,17:20,0.682,0.945,0.627,1.179,0.807,0.399,0.687,0.655,�k,9.6,�L
2019/10/22,17:30,0.683,0.944,0.626,1.179,0.807,0.400,0.688,0.656,�k,9.9,�L
2019/10/22,17:40,0.681,0.946,0.627,1.178,0.806,0.400,0.688,0.656,�k,10.2,�L
2019/10/22,17:50,0.684,0.946,0.628,1.181,0.807,0.400,0.689,0.657,�k,9.9,�L
2019/10/22,18:00,0.685,0.948,0.630,1.180,0.810,0.399,0.689,0.658,�k,11.3,�L
2019/10/22,18:10,0.686,0.947,0.629,1.182,0.807,0.399,0.689,0.657,�k,12.3,�L
2019/10/22,18:20,0.684,0.944,0.629,1.180,0.807,0.399,0.689,0.656,�k,11.9,�L
2019/10/22,18:30,0.682,0.946,0.629,1.174,0.805,0.400,0.689,0.658,�k,14.4,�L
2019/10/22,18:40,0.684,0.947,0.629,1.180,0.807,0.400,0.690,0.657,�k,12.9,�L
2019/10/22,18:50,0.686,0.946,0.630,1.182,0.809,0.401,0.690,0.657,�k,13.3,�L
2019/10/22,19:00,0.686,0.950,0.630,1.184,0.811,0.400,0.691,0.658,�k,11.3,�L
2019/10/22,19:10,0.688,0.951,0.631,1.188,0.810,0.402,0.688,0.657,�k,12.3,�L
2019/10/22,19:20,0.687,0.951,0.634,1.188,0.811,0.400,0.692,0.659,�k,11.9,�L
2019/10/22,19:30,0.687,0.950,0.634,1.188,0.811,0.400,0.690,0.659,�k�k��,11.3,�L
2019/10/22,19:40,0.685,0.947,0.631,1.184,0.807,0.401,0.691,0.657,�k�k��,9.9,�L
2019/10/22,19:50,0.684,0.946,0.629,1.181,0.810,0.401,0.690,0.657,�k�k��,9.9,�L
2019/10/22,20:00,0.684,0.948,0.631,1.182,0.808,0.398,0.690,0.657,�k�k��,9.4,�L
2019/10/22,20:10,0.683,0.949,0.632,1.187,0.809,0.400,0.691,0.657,�k�k��,9.4,�L
2019/10/22,20:20,0.684,0.949,0.633,1.185,0.811,0.399,0.690,0.658,�k�k��,9.4,�L
2019/10/22,20:30,0.681,0.947,0.631,1.182,0.811,0.400,0.691,0.657,�k,9.1,�L
2019/10/22,20:40,0.686,0.949,0.632,1.183,0.812,0.399,0.689,0.658,�k�k��,10.5,�L
2019/10/22,20:50,0.687,0.952,0.633,1.186,0.812,0.401,0.691,0.657,�k�k��,9.7,�L
2019/10/22,21:00,0.684,0.949,0.633,1.185,0.813,0.400,0.690,0.658,�k�k��,9.6,�L
2019/10/22,21:10,0.686,0.950,0.633,1.188,0.814,0.400,0.692,0.657,�k�k��,9.7,�L
2019/10/22,21:20,0.686,0.950,0.634,1.186,0.814,0.401,0.692,0.658,�k�k��,9.6,�L
2019/10/22,21:30,0.684,0.951,0.635,1.186,0.814,0.400,0.691,0.657,�k�k��,9.9,�L
2019/10/22,21:40,0.684,0.948,0.633,1.187,0.812,0.398,0.690,0.657,�k�k��,9.9,�L
2019/10/22,21:50,0.685,0.950,0.634,1.185,0.815,0.401,0.692,0.659,�k�k��,9.3,�L
2019/10/22,22:00,0.683,0.950,0.634,1.187,0.813,0.400,0.691,0.659,�k�k��,9.7,�L
2019/10/22,22:10,0.685,0.951,0.635,1.186,0.812,0.401,0.691,0.659,�k�k��,9.4,�L
2019/10/22,22:20,0.685,0.949,0.635,1.188,0.815,0.400,0.691,0.658,�k�k��,9.7,�L
2019/10/22,22:30,0.685,0.951,0.636,1.186,0.814,0.399,0.692,0.658,�k�k��,10.8,�L
2019/10/22,22:40,0.685,0.951,0.636,1.187,0.815,0.399,0.692,0.658,�k�k��,10.8,�L
2019/10/22,22:50,0.687,0.952,0.636,1.187,0.817,0.400,0.692,0.658,�k�k��,9.1,�L
2019/10/22,23:00,0.685,0.953,0.637,1.187,0.816,0.401,0.691,0.660,�k�k��,11.3,�L
2019/10/22,23:10,0.688,0.954,0.636,1.188,0.817,0.401,0.691,0.660,�k�k��,11.5,�L
2019/10/22,23:20,0.686,0.956,0.638,1.192,0.818,0.402,0.693,0.659,�k�k��,10.2,�L
2019/10/22,23:30,0.687,0.957,0.639,1.189,0.819,0.402,0.693,0.660,�k�k��,9.3,�L
2019/10/22,23:40,0.688,0.957,0.640,1.192,0.818,0.400,0.693,0.662,�k�k��,9.7,�L
2019/10/22,23:50,0.688,0.959,0.641,1.189,0.819,0.401,0.693,0.661,�k�k��,9.9,�L
